Вернуться в каталог

ONEWEB-0679

АктивенСвязьPO
NORAD 56715·PAYLOAD·🇬🇧 United Kingdom

Запущен May 20, 2023 с Vandenberg Space Force Base

Loading…

Ближайшие Пролёты (ближайшие 24 часа)

TLE

СвежийSource: CelesTrak SupGP

Эпоха: Sep 14, 2026, 22:14 UTC

1 56715C 23068F   26257.92687917 -.00002706  00000+0 -70862-2 0  2572
2 56715  87.9157 210.9517 0002079  94.9988 297.2927 13.16600197    16

Отслеживайте ONEWEB-0679 в реальном времени с AllMySat

Download on the App Store